Weather History for KGYL - February, 2013

Change the Weather History Date:

Wednesday, February 20, 2013

  Actual Average (KHCD) Record (KHCD)
Temperature  
Mean Temperature -2 °F -  
Max Temperature 10 °F 30 °F 58 °F (1981)
Min Temperature -13 °F 10 °F -18 °F (2008)
Degree Days  
Heating Degree Days 66    
Moisture  
Dew Point -8 °F    
Average Humidity 72    
Maximum Humidity 82    
Minimum Humidity 63    
Precipitation  
Precipitation 0.00 in - - ()
Sea Level Pressure  
Sea Level Pressure 30.40 in    
Wind  
Wind Speed 4 mph (NW)    
Max Wind Speed 8 mph    
Max Gust Speed -    
Visibility 10 miles    
Events      
Averages and records for this station are not official NWS values.
T = Trace of Precipitation, MM = Missing Value Source: NWS Daily Summary

Daily Weather History Graph

Daily Weather History Graph

Search for Another Location

Airport or City:

Trip Planner

Search our weather history database for the weather conditions in past years. The results will help you decide how hot, cold, wet, or windy it might be!

Date:

Astronomy

Feb. 20, 2013 Rise Set
Actual Time 7:08 AM CST 5:52 PM CST
Civil Twilight 6:38 AM CST 6:21 PM CST
Nautical Twilight 6:04 AM CST 6:55 PM CST
Astronomical Twilight 5:31 AM CST 7:29 PM CST
Moon 1:06 PM CST (2/20) 3:37 AM CST (2/20)
Length of Visible Light 11h 43m
Length of Day
10h 43m
Waxing Gibbous, 76% of the Moon is Illuminated
Feb 20
Waxing Gibbous
Feb 25
Full
Mar 4
Last Quarter
Mar 11
New
Mar 19
First Quarter

Hourly Weather History & Observations

Time (CST) Temp. Windchill Dew Point Humidity Pressure Visibility Wind Dir Wind Speed Gust Speed Precip Events Conditions
12:16 AM -6.0 °F -21.5 °F -13.0 °F 72% 30.37 in 10.0 mi West 8.1 mph - N/A   Clear
12:36 AM -7.4 °F -21.9 °F -13.9 °F 73% 30.38 in 10.0 mi West 6.9 mph - N/A   Clear
12:56 AM -7.1 °F -21.4 °F -13.7 °F 73% 30.39 in 10.0 mi West 6.9 mph - N/A   Clear
1:16 AM -7.6 °F -22.1 °F -13.9 °F 74% 30.39 in 10.0 mi West 6.9 mph - N/A   Clear
1:36 AM -8.0 °F -19.2 °F -14.3 °F 74% 30.39 in 10.0 mi WSW 4.6 mph - N/A   Clear
1:56 AM -9.4 °F -24.3 °F -15.3 °F 75% 30.40 in 10.0 mi West 6.9 mph - N/A   Clear
2:16 AM -9.6 °F -22.9 °F -15.3 °F 76% 30.41 in 10.0 mi West 5.8 mph - N/A   Clear
2:36 AM -10.1 °F -21.7 °F -15.9 °F 76% 30.42 in 10.0 mi WSW 4.6 mph - N/A   Clear
2:56 AM -10.7 °F -22.3 °F -16.4 °F 76% 30.41 in 10.0 mi WSW 4.6 mph - N/A   Clear
3:16 AM -11.0 °F -22.8 °F -16.8 °F 76% 30.41 in 10.0 mi WSW 4.6 mph - N/A   Clear
3:36 AM -11.2 °F -24.8 °F -17.0 °F 76% 30.41 in 10.0 mi WNW 5.8 mph - N/A   Clear
3:56 AM -11.6 °F -25.3 °F -17.5 °F 75% 30.41 in 10.0 mi West 5.8 mph - N/A   Clear
4:16 AM -12.3 °F -21.9 °F -17.9 °F 76% 30.42 in 10.0 mi WSW 3.5 mph - N/A   Clear
4:36 AM -12.6 °F -22.3 °F -18.0 °F 77% 30.42 in 10.0 mi West 3.5 mph - N/A   Clear
4:56 AM -12.6 °F -22.3 °F -18.0 °F 77% 30.42 in 10.0 mi West 3.5 mph - N/A   Clear
5:17 AM -12.3 °F -24.2 °F -17.7 °F 77% 30.42 in 10.0 mi NW 4.6 mph - N/A   Clear
5:36 AM -12.1 °F -24.0 °F -17.5 °F 77% 30.42 in 10.0 mi West 4.6 mph - N/A   Clear
5:56 AM -12.1 °F -25.9 °F -17.5 °F 77% 30.42 in 10.0 mi WNW 5.8 mph - N/A   Clear
6:15 AM -12.6 °F -22.3 °F -18.2 °F 76% 30.43 in 10.0 mi West 3.5 mph - N/A   Clear
6:36 AM -11.9 °F -23.8 °F -17.0 °F 78% 30.43 in 10.0 mi West 4.6 mph - N/A   Clear
6:56 AM -12.6 °F - -18.0 °F 77% 30.43 in 10.0 mi Calm Calm - N/A   Clear
7:16 AM -13.0 °F -25.1 °F -18.2 °F 77% 30.43 in 10.0 mi WNW 4.6 mph - N/A   Clear
7:36 AM -12.1 °F -24.0 °F -16.8 °F 80% 30.43 in 10.0 mi NW 4.6 mph - N/A   Clear
7:56 AM -11.2 °F -20.6 °F -16.6 °F 77% 30.43 in 10.0 mi NW 3.5 mph - N/A   Clear
8:16 AM -10.3 °F -21.9 °F -15.9 °F 76% 30.43 in 10.0 mi NNW 4.6 mph - N/A   Clear
8:36 AM -8.5 °F -19.8 °F -14.1 °F 77% 30.43 in 10.0 mi NNW 4.6 mph - N/A   Clear
8:56 AM -6.3 °F -17.3 °F -12.3 °F 75% 30.42 in 10.0 mi North 4.6 mph - N/A   Clear
9:16 AM -4.0 °F -14.6 °F -10.7 °F 73% 30.42 in 10.0 mi NNE 4.6 mph - N/A   Clear
9:36 AM -1.3 °F -11.4 °F -8.5 °F 72% 30.42 in 10.0 mi NE 4.6 mph - N/A   Clear
9:56 AM -0.4 °F -8.3 °F -8.0 °F 70% 30.43 in 10.0 mi NE 3.5 mph - N/A   Clear
10:16 AM 0.5 °F -7.3 °F -7.6 °F 69% 30.43 in 10.0 mi NNE 3.5 mph - N/A   Clear
10:36 AM 1.4 °F -6.2 °F -6.9 °F 68% 30.43 in 10.0 mi NE 3.5 mph - N/A   Clear
10:56 AM 2.7 °F -4.8 °F -5.8 °F 68% 30.43 in 10.0 mi East 3.5 mph - N/A   Clear
11:16 AM 4.1 °F - -5.6 °F 64% 30.44 in 10.0 mi Calm Calm - N/A   Clear
11:36 AM 5.0 °F -2.1 °F -4.5 °F 65% 30.44 in 10.0 mi ENE 3.5 mph - N/A   Clear
11:56 AM 5.0 °F - -4.5 °F 65% 30.44 in 10.0 mi Calm Calm - N/A   Clear
12:16 PM 5.2 °F - -4.5 °F 64% 30.44 in 10.0 mi Calm Calm - N/A   Clear
12:36 PM 6.1 °F - -3.8 °F 64% 30.43 in 10.0 mi Calm Calm - N/A   Clear
12:56 PM 6.3 °F - -2.9 °F 66% 30.43 in 10.0 mi Calm Calm - N/A   Clear
1:16 PM 6.8 °F - -3.3 °F 63% 30.43 in 10.0 mi Calm Calm - N/A   Clear
1:36 PM 7.0 °F 0.1 °F -2.0 °F 67% 30.42 in 10.0 mi NNW 3.5 mph - N/A   Clear
2:16 PM 8.2 °F 1.6 °F -0.9 °F 66% 30.42 in 10.0 mi NNW 3.5 mph - N/A   Clear
3:16 PM 9.0 °F 0.6 °F -0.9 °F 64% 30.41 in 10.0 mi ENE 4.6 mph - N/A   Clear
3:36 PM 9.1 °F 0.8 °F -0.4 °F 65% 30.40 in 10.0 mi North 4.6 mph - N/A   Clear
3:56 PM 10.0 °F 3.6 °F 0.1 °F 64% 30.39 in 10.0 mi NE 3.5 mph - N/A   Clear
4:16 PM 9.9 °F 1.6 °F 0.3 °F 65% 30.38 in 10.0 mi NE 4.6 mph - N/A   Clear
4:36 PM 10.0 °F 1.8 °F -0.0 °F 64% 30.38 in 10.0 mi NNE 4.6 mph - N/A   Clear
4:56 PM 10.0 °F 3.6 °F 0.1 °F 64% 30.38 in 10.0 mi NNE 3.5 mph - N/A   Clear
5:16 PM 10.2 °F 2.0 °F 0.3 °F 64% 30.38 in 10.0 mi North 4.6 mph - N/A   Clear
5:36 PM 10.0 °F 1.8 °F 0.3 °F 65% 30.37 in 10.0 mi North 4.6 mph - N/A   Clear
5:56 PM 9.9 °F 3.4 °F 0.3 °F 65% 30.38 in 10.0 mi NNE 3.5 mph - N/A   Clear
6:16 PM 9.5 °F 3.0 °F 0.1 °F 66% 30.38 in 10.0 mi NNE 3.5 mph - N/A   Clear
6:36 PM 9.5 °F - 0.3 °F 66% 30.37 in 10.0 mi Calm Calm - N/A   Clear
6:56 PM 9.5 °F - 0.3 °F 66% 30.38 in 10.0 mi Calm Calm - N/A   Clear
7:16 PM 9.3 °F - 0.1 °F 66% 30.38 in 10.0 mi Calm Calm - N/A   Clear
7:36 PM 7.2 °F 0.3 °F -0.4 °F 71% 30.38 in 10.0 mi WSW 3.5 mph - N/A   Clear
7:56 PM 6.3 °F -0.7 °F -0.4 °F 74% 30.37 in 10.0 mi North 3.5 mph - N/A   Clear
8:16 PM 7.2 °F -1.5 °F -0.4 °F 71% 30.36 in 10.0 mi North 4.6 mph - N/A   Clear
8:36 PM 5.9 °F -3.0 °F -0.8 °F 74% 30.35 in 10.0 mi North 4.6 mph - N/A   Clear
8:56 PM 6.8 °F - -0.6 °F 72% 30.36 in 10.0 mi Calm Calm - N/A   Clear
9:16 PM 5.2 °F - -1.3 °F 75% 30.36 in 10.0 mi Calm Calm - N/A   Clear
9:36 PM 4.3 °F - -1.8 °F 76% 30.36 in 10.0 mi Calm Calm - N/A   Clear
9:56 PM 4.6 °F - -1.5 °F 76% 30.36 in 10.0 mi Calm Calm - N/A   Clear
10:16 PM 5.5 °F - -1.8 °F 72% 30.36 in 10.0 mi Calm Calm - N/A   Clear
10:36 PM 4.8 °F - -1.7 °F 75% 30.36 in 10.0 mi Calm Calm - N/A   Clear
10:56 PM 3.4 °F - -2.6 °F 76% 30.37 in 10.0 mi Calm Calm - N/A   Clear
11:16 PM 1.4 °F - -4.0 °F 78% 30.36 in 10.0 mi Calm Calm - N/A   Clear
11:36 PM 1.2 °F - -4.0 °F 79% 30.36 in 10.0 mi Calm Calm - N/A   Clear
11:56 PM 0.9 °F - -3.5 °F 82% 30.36 in 10.0 mi Calm Calm - N/A   Clear